www.pogodaiklimat.ru

Погода и климат >> Архив погоды >> Вануату >> Санто-Пекоа


ПОГОДА в Санто-Пекоа

  • Прогноз погоды в Санто-Пекоа
  • Монитор погоды в Санто-Пекоа

АРХИВ ПОГОДЫ в Санто-Пекоа

Время (UTC), дата Ветер
(напр.,м/с)
 
Видим.   Явления Облачность Т
(С)
Тd
(С)
f
(%)
Тe
(С)
Тes
(С)
Комфортность P
(гПа)
Po
(гПа)
Тmin
(С)
Tmax
(С)
R
(мм)
R24
(мм)
S
(см)
12 17.01 З 2 20 км {ливн. осадки} 8/4 600 м
[Cu med, cong As trans]
+25.1 +24.3 95 +35 +35 очень
душно
1009.0 1009.0 +33.0 0.2
15 17.01 Ю 1 20 км 3/3 600 м
[Cu hum Ac trans]
+24.7 +23.9 95 +34 +34 очень
душно
1007.3 1007.0
21 17.01 Ю 3 20 км 9/9 600 м
[Cu Sc]
+28.1 +25.3 85 +41 +42 опасность
перегрева
1008.5 1009.0
00 18.01 Ю 3 20 км 9/5 600 м
[Cu Sc Ci fib]
+30.4 +26.0 77 +45 +53 опасность
перегрева
1008.6 1009.0 +23.0 0.2
03 18.01 Ю 4 20 км 9/6 600 м
[Cu Sc Cs]
+30.6 +26.0 77 +46 +50 опасность
перегрева
1006.9 1007.0
06 18.01 ЮВ 4 20 км 9/5 600 м
[Cu med, cong Ac trans Ci fib]
+28.3 +25.1 83 +41 +41 опасность
перегрева
1006.7 1007.0
09 18.01 ЮВ 3 20 км слаб. ливневой дождь 10/6 540 м
[Cu med, cong Ac As]
+26.2 +25.3 95 +38 +38 очень
душно
1008.9 1009.0
12 18.01 ЮВ 3 20 км в посл. час ливневой дождь 9/9 600 м
[Cu Sc]
+26.9 +25.0 89 +39 +39 очень
душно
1009.2 1009.0 +33.0 4
15 18.01 ЮВ 4 н/о н/о +27.1 +24.4 85 +38 +38 очень
душно
1007.4 1002.6
18 18.01 Ю 3 20 км 9/4 600 м
[Cu med, cong As trans]
+27.0 +24.1 84 +37 +37 очень
душно
1007.3 1007.0
21 18.01 Ю 5 20 км 8/1 750 м
[Cu med, cong Ac trans]
+27.7 +24.1 81 +39 +41 очень
душно
1008.8 1009.0
00 19.01 Ю 4 20 км 8/3 750 м
[Cu med, cong Ac As]
+30.2 +24.7 72 +43 +48 опасность
перегрева
1008.7 1009.0 +23.0 4
03 19.01 Ю 3 20 км 8/3 750 м
[Cu med, cong Ac As]
+30.4 +25.1 73 +44 +48 опасность
перегрева
1007.0 1007.0
06 19.01 Ю 4 20 км 9/5 600 м
[Cu Sc Ac As]
+29.4 +24.7 76 +42 +42 опасность
перегрева
1006.2 1006.0
09 19.01 ЮВ 5 20 км 8/3 600 м
[Cu med, cong Ac trans]
+28.3 +24.2 78 +39 +39 очень
душно
1008.2 1008.0
12 19.01 Ю 2 20 км 6/3 600 м
[Cu med, cong Ac trans]
+25.1 +24.0 94 +35 +35 очень
душно
1008.8 1009.0 +33.0
15 19.01 ЮЗ 2 н/о н/о +25.5 +24.5 94 +36 +36 очень
душно
1006.3 1001.4
18 19.01 Ю 2 20 км {ливн. осадки} 5/4 600 м
[Cu med, cong As trans]
+24.9 +24.5 98 +35 +35 очень
душно
1006.3 1006.0 2
21 19.01 ЮВ 3 20 км 6/3 750 м
[Cu med, cong Ac trans]
+28.5 +26.0 86 +43 +46 опасность
перегрева
1007.7 1008.0
00 20.01 ЮВ 4 20 км 6/4 750 м
[Cu med, cong Ac As Cs]
+29.9 +26.2 81 +46 +53 опасность
перегрева
1007.2 1007.0 +23.5 4
03 20.01 ЮВ 4 20 км 8/4 750 м
[Cu med, cong Ac As]
+31.0 +26.7 78 +48 +52 опасность
перегрева
1006.4 1006.0
06 20.01 ЮВ 2 20 км 9/5 600 м
[Cb cap Ac As]
+27.9 +25.4 86 +41 +41 опасность
перегрева
1005.8 1006.0
09 20.01 Ю 3 20 км 8/3 600 м
[Cu med, cong Ac As]
+26.7 +24.6 88 +38 +38 очень
душно
1008.5 1009.0
12 20.01 ЮВ 3 20 км 8/5 600 м
[Cu med, cong Ac As Cs]
+27.1 +25.0 88 +39 +39 очень
душно
1008.5 1009.0 +33.0
15 20.01 З 2 20 км 9/4 750 м
[Cu med, cong Cs]
+26.2 +25.2 94 +38 +38 очень
душно
1006.2 1006.0
18 20.01 ЮВ 1 20 км 8/4 600 м
[Cu med, cong Ac As Ci fib]
+26.0 +25.3 96 +38 +38 очень
душно
1006.2 1006.0
21 20.01 ЮВ 3 20 км 8/4 600 м
[Cu med, cong Ac trans]
+28.4 +25.3 83 +41 +43 опасность
перегрева
1007.1 1007.0
00 21.01 В 4 20 км 8/4 750 м
[Cu med, cong Ac trans]
+32.1 +26.2 71 +48 +53 опасность
перегрева
1007.9 1008.0 +24.0
03 21.01 В 3 10 км 6/4 750 м
[Cu med, cong Ac trans]
+31.1 +25.6 73 +46 +52 опасность
перегрева
1006.5 1007.0
06 21.01 В 3 20 км 9/4 750 м
[Cu med, cong Ac trans]
+28.9 +24.5 77 +41 +41 опасность
перегрева
1006.0 1006.0
09 21.01 штиль 0 20 км 5/3 750 м
[Cu hum Ac trans Ci fib]
+26.7 +25.2 91 +38 +38 очень
душно
1008.3 1008.0
12 21.01 ЮЗ 2 20 км 9/3 600 м
[Cu hum Ac trans Ci fib]
+26.4 +25.6 95 +39 +39 очень
душно
1009.1 1009.0 +33.0
15 21.01 В 3 20 км слаб. ливневой дождь 10/6 600 м
[Cu med, cong As trans]
+26.3 +25.3 94 +38 +38 очень
душно
1007.5 1008.0
18 21.01 ЮВ 2 20 км {ливн. осадки} 4/3 600 м
[Cu med, cong Ac trans]
+26.6 +25.4 93 +39 +39 очень
душно
1007.2 1007.0 0.2
21 21.01 ЮВ 5 20 км {ливн. осадки} 8/4 600 м
[Cu Sc Ac trans Ci sp]
+28.9 +25.9 84 +43 +45 опасность
перегрева
1008.6 1009.0
00 22.01 ЮВ 4 20 км 8/5 600 м
[Cu Sc As trans Cs]
+31.0 +26.1 75 +46 +52 опасность
перегрева
1008.4 1008.0 +23.0 0.2
03 22.01 ЮВ 5 20 км 8/5 600 м
[Cu Sc As trans Cs]
+31.3 +26.3 75 +47 +51 опасность
перегрева
1006.8 1007.0
06 22.01 ЮВ 5 20 км в посл. час ливневой дождь 8/4 600 м
[Cb cap Ac As Cs]
+29.7 +25.9 80 +44 +45 опасность
перегрева
1006.4 1006.0
09 22.01 ЮВ 4 20 км 9/4 600 м
[Cu med, cong As trans]
+28.1 +25.1 84 +41 +41 опасность
перегрева
1008.2 1008.0
12 22.01 ЮВ 5 20 км 8/6 600 м
[Cu med, cong Ac trans]
+27.8 +25.7 88 +41 +41 опасность
перегрева
1008.8 1009.0 +33.0
21 22.01 ЮВ 3 20 км слаб. ливневой дождь 10/10 540 м
[Cu Sc]
+25.6 +25.6 100 +37 +37 очень
душно
1008.1 1008.0
00 23.01 ЮВ 6 20 км {ливн. осадки} 9/4 600 м
[Cu med, cong As trans]
+27.2 +26.1 94 +41 +44 опасность
перегрева
1008.0 1008.0 +23.5 6
03 23.01 ЮВ 5 20 км 8/4 600 м
[Cu med, cong As trans]
+29.0 +25.9 83 +43 +47 опасность
перегрева
1006.9 1007.0
06 23.01 ЮВ 4 20 км 9/4 600 м
[Cu Sc As op]
+28.6 +24.3 78 +40 +41 очень
душно
1006.4 1006.0
09 23.01 В 4 20 км 8/5 600 м
[Cu med, cong As trans]
+27.8 +24.4 82 +39 +39 очень
душно
1008.1 1008.0
12 23.01 В 4 20 км 9/9 600 м
[Cu Sc]
+27.8 +23.9 79 +38 +38 очень
душно
1008.9 1009.0 +32.0
15 23.01 ЮВ 5 20 км 9/5 600 м
[Cu Sc As trans]
+27.6 +23.5 78 +37 +37 очень
душно
1007.0 1007.0
18 23.01 ЮВ 4 20 км 9/3 750 м
[Cu med, cong Ac As]
+27.5 +23.5 79 +37 +37 очень
душно
1007.5 1008.0
21 23.01 ЮВ 3 20 км 10/5 600 м
[Cu med, cong As trans]
+28.1 +24.6 81 +40 +41 очень
душно
1009.0 1009.0
00 24.01 В 4 20 км 9/4 600 м
[Cu med, cong As trans]
+29.3 +25.0 78 +42 +47 опасность
перегрева
1009.1 1009.0 +23.0
03 24.01 В 3 20 км 10/4 750 м
[Cu med, cong As trans]
+29.8 +24.9 75 +43 +46 опасность
перегрева
1007.4 1007.0
06 24.01 штиль 0 20 км 10/5 750 м
[Cu med, cong Ci fib]
+29.2 +24.2 74 1008.4 111
09 24.01 СЗ 1 20 км 10/4 600 м
[Cu med, cong As trans]
+25.6 +25.4 99 +37 +37 очень
душно
1009.7 1010.0

 

Местоположение метеостанции Санто-Пекоа (Вануату): широта -15.51 долгота 167.21 высота над уровнем моря 44 м.

В архиве по умолчанию представлена погода в Санто-Пекоа за последнюю неделю. Архивные данные за месяц целиком и за предыдущие месяцы, начиная с января 2011 года, Вы можете получить, выбрав интересующий диапазон дат из раскрывающегося списка и нажав кнопку "Ввод!".


*Определитесь, кто Вы:
робот инопланетянин человек

Внимание! Время в таблицах - всемирное. Для получения местного времени необходимо прибавить поправку, которая равна 11 ч.

Смотрите также архив погоды в соседних городах и на ближайших метеорологических станциях:

Погода в Саратамате (Вануату) (45 км)
Погода в Ламапе (Вануату) (118 км)
Погода в Соле (Вануату) (188 км)
Погода на Линуа (Вануату) (252 км)
Погода в Порт-Виле (Вануату) (270 км)
Погода на Эроманге (Вануату) (402 км)
Погода в Уайт Грасс (Вануату) (487 км)
Погода на Острове Сюрприз (Новая Каледония) (550 км)
Погода на Островах Санта-Круз (Соломоновы Острова) (556 км)
Погода на Острове Увеа (Новая Каледония) (576 км)

Пояснения к столбцам:

Ветер - указаны скорость ветра в м/с - средняя за 10 мин, порывы в срок и между сроками (в фигурных скобках) и направление, откуда дует ветер: С - северный, СВ - северо-восточный, В - восточный, ЮВ - юго-восточный, Ю - южный, ЮЗ - юго-западный, З - западный, СЗ - северо-западный.
Видимость - горизонтальная дальность видимости в метрах или километрах. При видимости от 1 до 10 км при отсутствии осадков обычно наблюдается дымка, при ухудшении видимости до 1 км и менее - туман. В сухую погоду видимость может ухудшаться дымом, пылью или мглою.
Явления - указаны атмосферные явления, наблюдавшиеся в срок или в последний час перед сроком; фигурными скобками обозначены явления, наблюдавшиеся между сроками (за 1-3 часа до срока); квадратными скобками обозначены град или гололедные отложения с указанием их диаметра в мм.
Облачность - указаны через наклонную черту общая и нижняя облачность в баллах и высота нижней границы облаков в метрах; квадратными скобками обозначены формы облаков: Ci - перистые, Cs - перисто-слоистые, Cc - перисто-кучевые, Ac - высококучевые, As - высокослоистые, Sc - слоисто-кучевые, Ns - слоисто-дождевые, Cu - кучевые, Cb - кучево-дождевые. Подробнее классификацию облаков см. в Атласе облаков (PDF).
T - Температура воздуха - температура, измеренная на высоте 2 м над землей.
Td - Температура точки росы - температура, при понижении до которой содержащийся в воздухе водяной пар достигнет насыщения.
f - Относительная влажность воздуха - влажноcть воздуха, измеренная на высоте 2 м над землей.
Te - Эффективная температура - температура, которую ощущает одетый по сезону человек в тени. Характеристика душности погоды. При расчете учитывается влияние влажности воздуха и скорости ветра на теплоощущения человека.
Tes - Эффективная температура на солнце - температура, которую ощущает человек, с поправкой на солнечный нагрев. Характеристика знойности погоды. Зависит от высоты солнца над горизонтом, облачности и скорости ветра. Ночью, в пасмурную погоду, а также при ветре 12 м/с и более поправка равна нулю.
P - Атмосферное давление - приведенное к уровню моря атмосферное давление.
Po - Атмосферное давление - измеренное на уровне метеостанции атмосферное давление.
Tmin - Минимальная температура - минимум температуры воздуха на высоте 2 м над землей.
Tmax - Максимальная температура - максимум температуры воздуха на высоте 2 м над землей.
R - Количество осадков - Количество выпавших осадков за период времени, мм. При наведении курсора мыши на число - период времени, за который выпало указанное количество осадков.
R24 - Количество осадков - Количество выпавших осадков за 24 часа, мм.
S - Снежный покров - Высота снежного покрова, см. При наведении курсора мыши на число - состояние снежного покрова и степень покрытия местности в баллах.